Location: Cogollal
(10.0582°N, 67.8466°W)
Time: 21:13:06
(UTC+00:00)

Nadezhda 2 Rocket - Pass Details

Date: 14 April 2024
Orbit: 948 x 1010 km, 83.0° (Epoch: 18 May)

Event Time Altitude Azimuth Distance (km) Brightness Sun altitude
Rises 09:46:58 0° 190° (S) 3,639 7.3 -9.1°
Reaches altitude 10° 09:49:30 10° 194° (SSW) 2,685 6.6 -8.5°
Maximum altitude 09:55:33 63° 274° (W) 1,057 4.5 -7.1°
Drops below altitude 10° 10:01:33 10° 354° (N) 2,663 6.9 -5.6°
Sets 10:04:03 0° 358° (N) 3,607 7.6 -5.0°
